カタログに戻る

CZ-6A DEB

運用中PO
NORAD 61318·DEBRIS·🇨🇳 China

打ち上げ Aug 6, 2024 から Taiyuan Satellite Launch Center

Loading…

次のパス (今後24時間)

TLE

最新Source: Space-Track

元期: Sep 14, 2026, 00:26 UTC

1 61318U 24140UF  26257.01832846  .00000759  00000-0  33149-3 0  9998
2 61318  89.1145 275.2024 0037721 262.8455  96.8447 14.22556606106049

AllMySatでCZ-6A DEBをリアルタイム追跡

Download on the App Store